Creek Data

    Home     View Charts     View Raw Data     Messages

ID Distance Battery Voltage Battery Current Internal Temp Internal Humidity External Temp Solar Input rssi snr Time Stamp Record
35133 15.1 4.05 0 41 37 45 5.1 -81 7 03/16/2025 08:15 AM 16886
35132 15.1 4.07 0 39 38 43 4.5 -85 8 03/16/2025 08:00 AM 16885
35131 15.1 4.05 15 37 39 39 4.5 -81 8 03/16/2025 07:45 AM 16884
35130 15.1 3.99 0 36 39 38 4.5 -82 8 03/16/2025 07:30 AM 16883
35129 15.1 3.96 -10 35 39 37 4.1 -83 7 03/16/2025 07:15 AM 16882
35128 15.1 3.98 -5 36 39 37 0.6 -82 8 03/16/2025 07:00 AM 16881
35127 15.1 4.03 -5 36 40 37 0.1 -82 8 03/16/2025 06:45 AM 16880
35126 15.1 3.98 -5 36 39 38 0 -82 8 03/16/2025 06:30 AM 16879
35125 15.1 3.98 -5 36 39 38 0 -83 8 03/16/2025 06:15 AM 16878
35124 15.1 3.98 -5 37 39 38 0.1 -82 8 03/16/2025 06:00 AM 16877
35123 15.1 3.98 -5 37 39 38 0.1 -81 8 03/16/2025 05:45 AM 16876
35122 15.1 3.98 -5 37 40 39 0 -83 8 03/16/2025 05:30 AM 16875
35121 15.0 3.98 -5 37 40 40 0 -83 8 03/16/2025 05:15 AM 16874
35120 15.0 3.98 -5 37 39 39 0.1 -82 8 03/16/2025 05:00 AM 16873
35119 15.0 3.99 -5 37 40 38 0 -81 9 03/16/2025 04:45 AM 16872
35118 15.0 4.04 -5 37 40 38 0 -80 8 03/16/2025 04:30 AM 16871
35117 15.0 3.99 -5 38 41 39 0 -79 8 03/16/2025 04:15 AM 16870
35116 15.1 3.99 -5 38 41 40 0.1 -80 8 03/16/2025 04:00 AM 16869
35115 15.0 3.99 -5 39 41 40 0.1 -80 6 03/16/2025 03:45 AM 16868
35114 15.0 3.99 -5 40 40 41 0.1 -79 8 03/16/2025 03:30 AM 16867
35113 15.0 4.04 -5 42 40 43 0 -79 8 03/16/2025 03:15 AM 16866
35112 15.0 3.99 -5 43 40 43 0.1 -80 8 03/16/2025 03:00 AM 16865
35111 15.0 3.99 -5 44 39 45 0 -80 8 03/16/2025 02:45 AM 16864
35110 15.0 3.99 -5 43 39 45 0 -80 8 03/16/2025 02:30 AM 16863
35109 15.0 3.99 -5 43 39 45 0.1 -80 7 03/16/2025 02:15 AM 16862